Weather History for KFOZ - February, 2014

Change the Weather History Date:

Thursday, February 20, 2014

  Actual Average (WUND) Record (WUND)
Temperature  
Mean Temperature 24 °F -  
Max Temperature 37 °F - - (-1)
Min Temperature 12 °F - - (-1)
Degree Days  
Heating Degree Days 40    
Moisture  
Dew Point 24 °F    
Average Humidity 79    
Maximum Humidity 93    
Minimum Humidity 60    
Precipitation  
Precipitation 0.21 in - - ()
Sea Level Pressure  
Sea Level Pressure 29.51 in    
Wind  
Wind Speed 5 mph (SSE)    
Max Wind Speed 7 mph    
Max Gust Speed -    
Visibility 5 miles    
Events Snow    
Averages and records for this station are not official NWS values.
T = Trace of Precipitation, MM = Missing Value Source: NWS Daily Summary

Daily Weather History Graph

Daily Weather History Graph

Search for Another Location

Airport or City:

Trip Planner

Search our weather history database for the weather conditions in past years. The results will help you decide how hot, cold, wet, or windy it might be!

Date:

Astronomy

Feb. 20, 2014 Rise Set
Actual Time 7:11 AM CST 5:45 PM CST
Civil Twilight 6:40 AM CST 6:17 PM CST
Nautical Twilight 6:04 AM CST 6:52 PM CST
Astronomical Twilight 5:28 AM CST 7:28 PM CST
Moon No Moon Rise 9:29 AM CST (2/20)
Length of Visible Light 11h 36m
Length of Day
10h 33m
Waning Gibbous, 70% of the Moon is Illuminated
Feb 20
Waning Gibbous
Feb 22
Last Quarter
Mar 1
New
Mar 8
First Quarter
Mar 16
Full

Hourly Weather History & Observations

Time (CST) Temp. Windchill Dew Point Humidity Pressure Visibility Wind Dir Wind Speed Gust Speed Precip Events Conditions
12:13 AM 37.4 °F 32.8 °F 24.8 °F 60% 29.58 in 10.0 mi SSE 5.8 mph - N/A   Mostly Cloudy
12:33 AM 35.6 °F 31.7 °F 24.8 °F 65% 29.58 in 10.0 mi SSE 4.6 mph - N/A   Scattered Clouds
12:53 AM 35.6 °F 29.9 °F 24.8 °F 65% 29.58 in 10.0 mi SSE 6.9 mph - N/A   Clear
1:13 AM 35.6 °F 31.7 °F 24.8 °F 65% 29.58 in 10.0 mi SSE 4.6 mph - N/A   Clear
1:33 AM 35.6 °F 30.7 °F 24.8 °F 65% 29.57 in 10.0 mi SSE 5.8 mph - N/A   Clear
1:53 AM 35.6 °F 29.9 °F 24.8 °F 65% 29.56 in 10.0 mi SSE 6.9 mph - N/A   Clear
2:13 AM 35.6 °F 29.9 °F 24.8 °F 65% 29.56 in 10.0 mi SSE 6.9 mph - N/A   Clear
2:33 AM 35.6 °F 30.7 °F 24.8 °F 65% 29.56 in 10.0 mi SSE 5.8 mph - N/A   Scattered Clouds
2:53 AM 35.6 °F 29.9 °F 24.8 °F 65% 29.56 in 10.0 mi SSE 6.9 mph - N/A   Scattered Clouds
3:13 AM 35.6 °F 29.9 °F 24.8 °F 65% 29.55 in 10.0 mi SSE 6.9 mph - N/A   Mostly Cloudy
3:33 AM 35.6 °F 30.7 °F 24.8 °F 65% 29.54 in 10.0 mi SSE 5.8 mph - N/A   Overcast
3:53 AM 35.6 °F 31.7 °F 24.8 °F 65% 29.54 in 10.0 mi SSE 4.6 mph - N/A   Scattered Clouds
4:13 AM 33.8 °F 28.6 °F 24.8 °F 70% 29.55 in 10.0 mi SSE 5.8 mph - N/A   Scattered Clouds
4:33 AM 33.8 °F 29.6 °F 24.8 °F 70% 29.54 in 10.0 mi SSE 4.6 mph - N/A   Scattered Clouds
4:53 AM 33.8 °F 29.6 °F 24.8 °F 70% 29.53 in 10.0 mi SSE 4.6 mph - N/A   Clear
5:13 AM 33.8 °F 28.6 °F 24.8 °F 70% 29.54 in 10.0 mi SSE 5.8 mph - N/A   Mostly Cloudy
5:33 AM 35.6 °F 30.7 °F 24.8 °F 65% 29.55 in 10.0 mi South 5.8 mph - N/A   Overcast
5:53 AM 35.6 °F 29.9 °F 24.8 °F 65% 29.54 in 10.0 mi SSE 6.9 mph - N/A   Overcast
6:13 AM 35.6 °F 30.7 °F 24.8 °F 65% 29.53 in 10.0 mi SSE 5.8 mph - N/A   Overcast
6:33 AM 35.6 °F 29.9 °F 24.8 °F 65% 29.54 in 10.0 mi South 6.9 mph - N/A   Mostly Cloudy
6:53 AM 35.6 °F 31.7 °F 24.8 °F 65% 29.54 in 10.0 mi SSE 4.6 mph - N/A   Mostly Cloudy
7:13 AM 35.6 °F 30.7 °F 24.8 °F 65% 29.55 in 10.0 mi SSE 5.8 mph - N/A   Overcast
7:33 AM 33.8 °F 29.6 °F 24.8 °F 70% 29.54 in 10.0 mi SE 4.6 mph - N/A   Overcast
7:53 AM 33.8 °F 28.6 °F 24.8 °F 70% 29.55 in 10.0 mi SSE 5.8 mph - N/A   Overcast
8:13 AM 33.8 °F 30.8 °F 24.8 °F 70% 29.55 in 10.0 mi SSE 3.5 mph - N/A   Overcast
8:33 AM 33.8 °F 29.6 °F 24.8 °F 70% 29.55 in 10.0 mi SSE 4.6 mph - N/A   Overcast
8:53 AM 33.8 °F 29.6 °F 24.8 °F 70% 29.55 in 10.0 mi SE 4.6 mph - N/A   Overcast
9:13 AM 33.8 °F 27.7 °F 24.8 °F 70% 29.55 in 10.0 mi SSE 6.9 mph - N/A   Mostly Cloudy
9:33 AM 33.8 °F 27.7 °F 24.8 °F 70% 29.55 in 10.0 mi SSE 6.9 mph - N/A   Mostly Cloudy
9:53 AM 33.8 °F 28.6 °F 24.8 °F 70% 29.54 in 10.0 mi SSE 5.8 mph - N/A   Scattered Clouds
10:13 AM 33.8 °F 28.6 °F 24.8 °F 70% 29.55 in 10.0 mi SE 5.8 mph - N/A   Mostly Cloudy
10:33 AM 33.8 °F 28.6 °F 26.6 °F 75% 29.56 in 3.0 mi SE 5.8 mph - N/A Snow Light Snow
10:53 AM 33.8 °F - 28.4 °F 81% 29.55 in 1.0 mi Calm Calm - N/A Snow Light Snow
11:13 AM 32.0 °F 28.7 °F 28.4 °F 87% 29.55 in 1.0 mi SE 3.5 mph - N/A Snow Light Snow
11:33 AM 32.0 °F 28.7 °F 28.4 °F 87% 29.54 in 1.0 mi SSE 3.5 mph - 0.01 in Snow Light Snow
11:53 AM 32.0 °F 28.7 °F 28.4 °F 87% 29.54 in 1.0 mi SE 3.5 mph - 0.01 in Snow Light Snow
12:13 PM 32.0 °F - 28.4 °F 87% 29.54 in 1.0 mi Calm Calm - 0.01 in Snow Light Snow
12:33 PM 32.0 °F - 28.4 °F 87% 29.54 in 1.0 mi Calm Calm - 0.02 in Snow Light Snow
12:53 PM 32.0 °F - 28.4 °F 87% 29.53 in 0.8 mi Calm Calm - N/A Snow Light Snow
1:13 PM 32.0 °F - 28.4 °F 87% 29.52 in 0.8 mi Calm Calm - 0.02 in Snow Light Snow
1:33 PM 32.0 °F - 28.4 °F 87% 29.51 in 1.2 mi Calm Calm - 0.03 in Snow Light Snow
1:53 PM 32.0 °F - 28.4 °F 87% 29.51 in 1.0 mi Calm Calm - 0.01 in Snow Light Snow
2:13 PM 32.0 °F - 28.4 °F 87% 29.51 in 1.0 mi Calm Calm - 0.01 in Snow Light Snow
2:33 PM 32.0 °F - 28.4 °F 87% 29.51 in 0.8 mi Calm Calm - 0.02 in Snow Light Snow
2:53 PM 32.0 °F - 30.2 °F 93% 29.51 in 0.5 mi Calm Calm - 0.01 in Snow Snow
3:13 PM 32.0 °F - 30.2 °F 93% 29.51 in 0.5 mi Calm Calm - 0.02 in Snow Snow
3:33 PM 32.0 °F - 30.2 °F 93% 29.51 in 0.5 mi Calm Calm - 0.04 in   Overcast
3:53 PM 32.0 °F - 30.2 °F 93% 29.50 in 0.8 mi Calm Calm - 0.01 in Snow Snow
4:13 PM 32.0 °F - 30.2 °F 93% 29.51 in 0.5 mi Calm Calm - 0.02 in Snow Heavy Snow
4:33 PM 32.0 °F - 30.2 °F 93% 29.51 in 0.8 mi Calm Calm - 0.04 in Snow Light Snow
4:53 PM 32.0 °F - 30.2 °F 93% 29.50 in 0.8 mi Calm Calm - 0.01 in Snow Light Snow
5:13 PM 32.0 °F - 30.2 °F 93% 29.49 in 0.8 mi Calm Calm - 0.02 in Snow Light Snow
5:33 PM 30.2 °F 26.7 °F 28.4 °F 93% 29.49 in 1.0 mi East 3.5 mph - 0.03 in Snow Light Snow
5:53 PM 28.4 °F 24.6 °F 26.6 °F 93% 29.49 in 1.8 mi NNW 3.5 mph - N/A Snow Light Snow
6:13 PM 28.4 °F 23.3 °F 26.6 °F 93% 29.49 in 2.0 mi NW 4.6 mph - N/A Snow Light Snow
6:33 PM 26.6 °F 20.0 °F 24.8 °F 93% 29.49 in 1.5 mi NW 5.8 mph - 0.01 in Snow Light Snow
6:53 PM 26.6 °F 20.0 °F 23.0 °F 86% 29.48 in 1.2 mi NW 5.8 mph - N/A Snow Light Snow
7:13 PM 24.8 °F 19.1 °F 21.2 °F 86% 29.47 in 1.5 mi NW 4.6 mph - N/A Snow Light Snow
7:33 PM 24.8 °F 19.1 °F 21.2 °F 86% 29.45 in 1.8 mi NW 4.6 mph - 0.01 in Snow Light Snow
7:53 PM 24.8 °F 20.5 °F 19.4 °F 80% 29.45 in 2.0 mi NNW 3.5 mph - N/A Snow Light Snow
8:13 PM 23.0 °F 18.4 °F 19.4 °F 86% 29.44 in 1.8 mi NW 3.5 mph - N/A Snow Light Snow
8:33 PM 21.2 °F 13.6 °F 17.6 °F 86% 29.44 in 1.5 mi NNW 5.8 mph - N/A Snow Light Snow
8:53 PM 21.2 °F 13.6 °F 17.6 °F 86% 29.43 in 1.2 mi NNW 5.8 mph - N/A Snow Light Snow
9:13 PM 19.4 °F 11.5 °F 15.8 °F 86% 29.43 in 1.5 mi North 5.8 mph - N/A Snow Light Snow
9:33 PM 19.4 °F 12.8 °F 15.8 °F 86% 29.42 in 1.5 mi NNW 4.6 mph - N/A Snow Light Snow
9:53 PM 17.6 °F 10.7 °F 14.0 °F 86% 29.42 in 1.5 mi NW 4.6 mph - N/A Snow Light Snow
10:13 PM 15.8 °F 10.2 °F 12.2 °F 86% 29.43 in 1.2 mi NW 3.5 mph - N/A Snow Light Snow
10:33 PM 15.8 °F 8.6 °F 10.4 °F 79% 29.42 in 1.0 mi NW 4.6 mph - N/A Snow Snow
10:53 PM 14.0 °F 6.5 °F 10.4 °F 86% 29.41 in 1.0 mi NW 4.6 mph - N/A Snow Snow
11:13 PM 14.0 °F 6.5 °F 10.4 °F 86% 29.37 in 1.0 mi NW 4.6 mph - N/A Snow Snow
11:33 PM 12.2 °F 2.9 °F 8.6 °F 85% 29.36 in 1.0 mi NW 5.8 mph - N/A Snow Snow
11:53 PM 12.2 °F 2.9 °F 8.6 °F 85% 29.35 in 1.0 mi NW 5.8 mph - N/A Snow Light Snow